This demonstration page uses our WeatherBlox Daily Observations layout. Learn more.

Left ArrowRight Arrow

Hourly Observations for July 25, 2018

Temp ( °F °C ) Dew Point ( °F °C ) Humidity (%) Winds ( mph kmh ) Pressure ( in mb ) Visibility ( mi km ) Precip ( " mm )
12:53 am 00:53 Clear 72 22.2 62 16.7 71 71 SSE 8 13 30.12 1020 10 16 0.00 0.00
1:53 am 01:53 Clear 72 22.2 61 16.1 68 68 SSE 9 15 30.09 1019 10 16 0.00 0.00
2:53 am 02:53 Clear 69 20.6 61 16.1 76 76 S 8 13 30.09 1019 10 16 0.00 0.00
3:53 am 03:53 Mostly Cloudy 68 20 60 15.6 76 76 S 7 11 30.08 1019 10 16 0.00 0.00
4:53 am 04:53 Mostly Clear 67 19.4 59 15 76 76 S 8 13 30.08 1019 10 16 0.00 0.00
5:53 am 05:53 Partly Cloudy 66 18.9 59 15 78 78 S 7 11 30.07 1018 10 16 0.00 0.00
6:53 am 06:53 Sunny 65 18.3 60 15.6 84 84 S 6 9 30.08 1019 10 16 0.00 0.00
7:53 am 07:53 Mostly Cloudy 67 19.4 61 16.1 81 81 NNW 15 24 30.11 1020 10 16 0.00 0.00
8:53 am 08:53 Mostly Cloudy 70 21.1 63 17.2 79 79 VRB 3 6 30.13 1020 10 16 0.00 0.03
9:53 am 09:53 Sunny 72 22.2 62 16.7 71 71 NE 3 6 30.12 1020 10 16 0.00 0.00
10:30 am 10:30 Partly Cloudy with Nearby Thunderstorms 73 23 61 16 65 65 SSW 6 9 30.06 1018 10 16 0.00 0.00
10:51 am 10:51 Partly Cloudy with Thunderstorms 73 23 61 16 65 65 S 8 13 30.06 1018 10 16 0.00 0.00
10:53 am 10:53 Partly Cloudy with Thunderstorms 72 22.2 61 16.1 68 68 S 8 13 30.10 1019 10 16 0.00 0.00
11:21 am 11:21 Mostly Cloudy with Light Rain 70 21.1 64 17.8 82 82 NW 18 30 30.12 1020 10 16 0.00 0.03
11:29 am 11:29 Mostly Cloudy with Nearby Thunderstorms 70 21.1 63 17.2 79 79 NW 16 26 30.12 1020 10 16 0.00 0.03
11:48 am 11:48 Mostly Cloudy with Light Rain 68 20 63 17 83 83 W 8 13 30.09 1019 7 11 0.00 0.00
11:53 am 11:53 Mostly Cloudy with Light Rain 68 20 62 16.7 81 81 NW 6 9 30.15 1021 6 10 0.03 0.76
12:01 pm 12:01 Mostly Cloudy with Nearby Thunderstorms 68 20 63 17.2 84 84 Calm 30.06 1018 6 10 0.00 0.03
12:16 pm 12:16 Mostly Cloudy with Light Rain 66 19 64 18 94 94 ESE 8 13 30.06 1018 7 11 0.00 0.00
12:53 pm 12:53 Mostly Sunny 69 20.6 64 17.8 84 84 S 10 17 30.07 1018 10 16 0.04 1.02
1:53 pm 13:53 Sunny 73 22.8 65 18.3 76 76 SE 13 20 30.01 1016 10 16 0.00 0.00
2:53 pm 14:53 Sunny 78 25.6 65 18.3 64 64 S 9 15 30.02 1017 10 16 0.00 0.00
3:41 pm 15:41 Partly Cloudy with Nearby Thunderstorms 77 25 66 19 69 69 NNW 7 11 30.00 1016 10 16 0.00 0.00
3:51 pm 15:51 Mostly Cloudy with Thunderstorms 75 24 66 19 74 74 NW 7 11 30.00 1016 10 16 0.00 0.03
3:53 pm 15:53 Mostly Cloudy with Thunderstorms 75 23.9 68 20 79 79 NNW 9 15 30.04 1017 10 16 0.01 0.25
4:08 pm 16:08 Cloudy with Rain 72 22 68 20 88 88 NNW 12 19 30.03 1017 4 6 0.00 0.00
4:11 pm 16:11 Cloudy with Strong Thunderstorms 72 22.2 69 20.6 91 91 N 15 24 30.03 1017 3 4 0.10 2.54
4:23 pm 16:23 Cloudy with Strong Thunderstorms 69 20.6 67 19.4 93 93 NNE 17 28 30.03 1017 1 2 0.31 7.87
4:32 pm 16:32 Cloudy with Strong Thunderstorms 72 22 70 21 94 94 VRB 6 9 30.00 1016 1 2 0.00 0.00
4:37 pm 16:37 Cloudy with Thunderstorms 75 23.9 69 20.6 82 82 ENE 6 9 29.97 1015 3 5 0.45 11.43
4:53 pm 16:53 Cloudy with Nearby Thunderstorms 72 22.2 68 20 87 87 N 8 13 30.05 1018 10 16 0.46 11.68
5:00 pm 17:00 Cloudy 73 23 70 21 89 89 NE 8 13 30.03 1017 10 16 0.00 0.00
5:53 pm 17:53 Mostly Sunny 78 25.6 67 19.4 69 69 ENE 6 9 30.03 1017 10 16 0.00 0.00
6:53 pm 18:53 Mostly Cloudy 78 25.6 67 19.4 69 69 Calm 30.03 1017 10 16 0.00 0.00
7:53 pm 19:53 Cloudy 76 24.4 64 17.8 67 67 S 5 7 30.04 1017 10 16 0.00 0.00
8:53 pm 20:53 Mostly Sunny 74 23.3 65 18.3 74 74 S 7 11 30.04 1017 10 16 0.00 0.00
9:53 pm 21:53 Clear 72 22.2 67 19.4 84 84 S 3 6 30.06 1018 10 16 0.00 0.00
10:53 pm 22:53 Clear 70 21.1 67 19.4 90 90 N 3 6 30.08 1019 10 16 0.00 0.00
11:53 pm 23:53 Clear 68 20 66 18.9 93 93 NNE 5 7 30.10 1019 10 16 0.00 0.00

Powered by AerisWeather